Stations météo

réclame
Mon MeteoGroup
Biarritz, France (7602): Température de l'air & dewpoint: 22.02.2020 19:00:00 - 28.02.2020 19:00:00 (CET)Biarritz, France (7602): Température de l'air 5cm: 22.02.2020 19:00:00 - 28.02.2020 19:00:00 (CET)Biarritz, France (7602): Température de l'air -20cm & Température de l'air -100cm: 22.02.2020 19:00:00 - 28.02.2020 19:00:00 (CET)Biarritz, France (7602): Vitesse du vent & gusts: 22.02.2020 19:00:00 - 28.02.2020 19:00:00 (CET)Biarritz, France (7602): Direction du vent: 22.02.2020 19:00:00 - 28.02.2020 19:00:00 (CET)Biarritz, France (7602): reduced air pressure: 22.02.2020 19:00:00 - 28.02.2020 19:00:00 (CET)Biarritz, France (7602): visibility: 22.02.2020 19:00:00 - 28.02.2020 19:00:00 (CET)Biarritz, France (7602): Ensoleillement: 22.02.2020 19:00:00 - 28.02.2020 19:00:00 (CET)Biarritz, France (7602): Quantités de précipitations: 22.02.2020 19:00:00 - 28.02.2020 19:00:00 (CET)
Date & Time tt [°C] td [°C] tt 5cm [°C] tt -20cm [°C] tt -100cm [°C] ff [km/h] ff [knt] fx [km/h] fx [knt] dd ppp [hPa] vv [km] sd [min] rr [mm]
28.02.2020 19:00:00 15,0 7,5 13,5 12,5 11,9 8 4 20 11 E 1014,3 17 3 0,0
28.02.2020 18:00:00 16,9 6,4 15,9 12,4 11,9 8 5 14 7 ENE 1015,1 15 18 0,0
28.02.2020 17:00:00 18,8 5,3 20,2 12,2 11,8 9 5 15 8 NE 1015,7 17 42 0,0
28.02.2020 16:00:00 18,0 9,6 21,3 12,0 11,8 8 4 14 8 NE 1017,1 13 52 0,0
28.02.2020 15:00:00 17,2 8,6 20,9 11,8 11,8 7 4 16 9 NNE 1018,2 13 51 0,0
28.02.2020 14:00:00 16,2 9,4 18,5 11,6 11,9 9 5 13 7 N 1019,5 11 27 0,0
28.02.2020 13:00:00 15,8 10,1 18,4 11,5 11,8 3 2 19 10 W 1020,6 11 28 0,0
28.02.2020 12:00:00 14,9 8,6 16,8 11,4 11,9 9 5 23 12 WSW 1021,2 13 16 0,0
28.02.2020 11:00:00 15,0 9,8 14,9 11,3 11,9 9 5 15 8 SW 1021,8 12 28 0,0
28.02.2020 10:00:00 14,0 9,6 13,4 11,3 11,9 5 3 9 5 SW 1022,1 11 22 0,0
28.02.2020 09:00:00 12,5 10,2 11,8 11,3 11,9 4 2 8 5 S 1022,5 10 22 0,0
28.02.2020 08:00:00 12,0 10,2 11,6 11,3 11,9 5 3 15 8 SSW 1022,3 5 0 0,0
28.02.2020 07:00:00 12,4 9,8 12,2 11,3 11,9 10 5 31 17 WSW 1022,2 7 0 0,0
28.02.2020 06:00:00 12,7 10,4 12,7 11,2 11,9 11 6 36 19 WSW 1022,1 6 0 0,0
28.02.2020 05:00:00 12,6 11,0 12,6 11,2 11,9 16 9 40 21 WSW 1021,9 7 0 0,0
28.02.2020 04:00:00 12,5 11,6 12,4 11,2 11,9 19 10 36 20 WSW 1021,9 7 0 0,4
28.02.2020 03:00:00 12,2 12,2 12,5 11,1 11,9 18 10 45 24 W 1021,9 2,6 0 1,6
28.02.2020 02:00:00 12,2 12,2 12,6 11,1 11,9 27 15 46 25 W 1022,0 2,1 0 1,6
28.02.2020 01:00:00 12,2 12,2 12,2 11,1 11,9 16 9 34 18 W 1022,1 3,9 0 0,2
28.02.2020 00:00:00 11,8 11,6 12,0 11,0 11,9 15 8 24 13 W 1022,3 2,3 0 0,0
27.02.2020 23:00:00 11,6 11,4 11,9 11,0 11,9 16 9 31 17 WNW 1022,3 3,3 0 0,2
27.02.2020 22:00:00 11,6 11,4 11,9 11,0 11,9 23 12 35 19 WNW 1022,1 3,9 0 1,2
27.02.2020 21:00:00 11,9 11,7 11,9 10,9 11,9 22 12 43 23 WNW 1021,8 1,9 0 2,8
27.02.2020 20:00:00 11,5 11,2 11,8 10,9 11,9 22 12 52 28 WNW 1021,5 2,1 0 2,6
27.02.2020 19:00:00 12,5 12,0 12,4 10,8 11,9 24 13 50 27 W 1020,5 4,1 0 1,0
27.02.2020 18:00:00 12,4 11,5 12,0 10,8 11,9 29 15 59 32 W 1019,6 7 0 0,2
27.02.2020 17:00:00 11,7 11,2 11,5 10,8 11,9 23 13 58 32 WSW 1019,2 3,3 0 1,4
27.02.2020 16:00:00 11,0 10,5 11,2 10,7 11,9 24 13 54 29 WSW 1018,8 6 0 1,9
27.02.2020 15:00:00 10,7 10,2 10,9 10,7 11,9 19 10 49 27 SW 1018,2 2,8 0 1,8
27.02.2020 14:00:00 11,1 10,3 11,5 10,6 11,9 27 15 61 33 WSW 1018,2 1,6 0 1,2
27.02.2020 13:00:00 11,4 10,5 10,6 10,6 11,9 30 16 60 33 W 1018,1 1,6 0 2,0
27.02.2020 12:00:00 12,1 7,8 10,6 10,6 11,9 45 24 76 41 W 1017,5 5 0 0,2
27.02.2020 11:00:00 15,1 4,2 14,4 10,6 11,9 18 10 39 21 WSW 1015,7 19 0 0,0
27.02.2020 10:00:00 14,8 3,9 14,1 10,6 11,9 18 10 44 24 WSW 1015,3 29 0 0,0
27.02.2020 09:00:00 14,5 3,6 13,1 10,6 11,9 21 12 50 27 SW 1014,0 18 0 0,0
27.02.2020 08:00:00 13,5 4,9 11,3 10,7 12,0 18 10 37 20 SW 1013,3 19 0 0,0
27.02.2020 07:00:00 12,2 5,6 9,6 10,7 12,0 11 6 27 15 SW 1013,3 59 0 0,0
27.02.2020 06:00:00 10,3 6,1 8,7 10,7 12,0 9 5 31 17 SSW 1013,5 60 0 0,0
27.02.2020 05:00:00 9,2 6,8 8,4 10,7 12,0 11 6 25 13 S 1013,8 60 0 0,4
27.02.2020 04:00:00 8,9 6,2 8,5 10,7 11,9 7 4 17 9 S 1015,5 40 0 0,0
27.02.2020 03:00:00 8,6 6,4 8,5 10,8 12,0 8 4 16 9 S 1017,1 55 0 0,0
27.02.2020 02:00:00 8,5 7,0 8,5 10,8 12,0 7 4 16 9 S 1018,4 40 0 0,0
27.02.2020 01:00:00 8,5 7,1 8,6 10,9 12,0 6 3 14 8 S 1019,3 30 0 0,0
27.02.2020 00:00:00 8,6 7,8 8,7 10,9 12,0 8 4 19 11 SW 1020,6 9 0 1,4
26.02.2020 23:00:00 9,0 8,4 9,0 10,9 12,0 5 3 14 8 SSW 1021,4 7 0 0,0
26.02.2020 22:00:00 8,9 8,3 8,9 10,9 12,0 8 4 18 10 SW 1021,8 7 0 1,4
26.02.2020 21:00:00 8,9 7,5 8,7 11,0 12,0 10 6 29 15 SW 1021,9 4,0 0 0,2
26.02.2020 20:00:00 10,1 5,7 9,2 11,0 12,0 24 13 40 22 W 1022,4 20 0 0,0
26.02.2020 19:00:00 10,2 5,6 9,2 11,0 12,0 25 14 42 23 W 1022,2 20 0 0,0
26.02.2020 18:00:00 9,4 7,2 8,6 11,0 12,0 23 12 46 25 W 1022,2 17 0 0,4
26.02.2020 17:00:00 10,7 5,4 9,0 11,0 12,0 24 13 44 24 WNW 1021,8 19 0 0,2
26.02.2020 16:00:00 10,0 6,2 9,0 10,9 12,0 33 18 48 26 WNW 1021,9 9 23 0,0
26.02.2020 15:00:00 11,3 6,0 8,2 10,9 12,0 27 15 53 28 WNW 1021,9 19 4 0,6
26.02.2020 14:00:00 9,8 6,1 8,8 10,8 12,0 31 17 47 25 WNW 1022,6 6 10 0,2
26.02.2020 13:00:00 11,0 7,1 9,8 10,8 12,0 24 13 54 29 NW 1022,9 18 18 0,0
26.02.2020 12:00:00 9,9 6,2 8,0 10,8 12,0 29 16 51 28 WNW 1023,1 17 0 0,6
26.02.2020 11:00:00 10,5 6,6 8,4 10,8 12,0 28 15 51 27 WNW 1022,4 14 3 0,2
26.02.2020 10:00:00 10,1 6,4 7,5 10,9 12,0 24 13 61 33 WNW 1021,8 17 0 0,4
26.02.2020 09:00:00 10,9 5,6 10,0 10,9 12,0 29 16 61 33 WNW 1021,0 17 1 0,0
26.02.2020 08:00:00 10,5 5,3 9,5 11,0 12,0 36 19 79 43 WNW 1020,2 17 0 0,0
26.02.2020 07:00:00 10,6 4,5 8,7 11,0 12,0 44 24 71 38 WNW 1019,9 17 0 0,0
26.02.2020 06:00:00 10,4 6,2 8,0 11,1 12,0 31 17 64 35 WNW 1019,7 13 0 0,6
26.02.2020 05:00:00 9,0 7,3 7,9 11,1 12,0 40 21 74 40 W 1019,7 1,6 0 3,0
26.02.2020 04:00:00 10,1 7,7 8,2 11,2 12,0 26 14 71 38 W 1019,6 14 0 0,6
26.02.2020 03:00:00 9,0 7,4 8,2 11,3 12,0 33 18 52 28 WNW 1020,3 1,7 0 3,1
26.02.2020 02:00:00 10,8 8,4 8,9 11,3 12,0 29 16 51 28 W 1020,1 15 0 0,2
26.02.2020 01:00:00 9,3 8,2 8,0 11,4 12,0 24 13 63 34 W 1020,4 8 0 0,6
26.02.2020 00:00:00 10,6 8,0 9,2 11,4 12,0 26 14 61 33 W 1020,4 16 0 0,6
25.02.2020 23:00:00 9,7 8,3 9,0 11,5 12,0 18 10 44 24 W 1021,0 1,9 0 1,8
25.02.2020 22:00:00 10,1 8,4 9,7 11,5 12,0 21 11 45 24 WSW 1020,4 15 0 0,0
25.02.2020 21:00:00 10,8 6,0 10,1 11,6 12,0 29 16 54 29 W 1020,5 18 0 0,0
25.02.2020 20:00:00 11,1 7,2 9,8 11,6 12,0 35 19 51 28 WNW 1020,8 18 0 0,0
25.02.2020 19:00:00 10,7 9,3 10,2 11,6 12,0 33 18 51 28 W 1020,2 15 0 0,2
25.02.2020 18:00:00 10,8 9,9 10,4 11,6 12,0 28 15 47 25 WNW 1019,6 11 0 0,2
25.02.2020 17:00:00 11,0 10,4 11,1 11,6 12,0 21 11 41 22 NW 1018,9 6 0 1,0
25.02.2020 16:00:00 11,6 10,7 11,5 11,5 12,0 30 16 56 30 W 1018,4 4,3 0 0,2
25.02.2020 15:00:00 11,7 11,2 11,6 11,5 12,0 20 11 49 27 W 1018,3 6 0 0,2
25.02.2020 14:00:00 11,6 11,1 11,4 11,4 11,9 13 7 29 16 WSW 1018,7 9 0 0,2
25.02.2020 13:00:00 11,1 10,6 11,3 11,4 12,0 15 8 29 16 WSW 1019,5 4,7 0 2,6
25.02.2020 12:00:00 11,4 10,3 11,4 11,4 12,0 12 6 31 17 WSW 1019,6 3,5 0 0,2
25.02.2020 11:00:00 11,6 9,3 11,0 11,4 12,0 17 9 33 18 W 1019,8 14 0 0,0
25.02.2020 10:00:00 10,9 9,2 10,0 11,4 12,0 12 7 26 14 WSW 1020,2 10 0 0,0
25.02.2020 09:00:00 11,1 8,3 9,8 11,4 11,9 9 5 23 12 SW 1020,3 13 0 0,0
25.02.2020 08:00:00 10,8 8,7 9,5 11,5 11,9 13 7 23 12 WSW 1020,3 10 0 0,6
25.02.2020 07:00:00 10,5 7,0 9,6 11,5 12,0 8 4 16 9 SSW 1020,2 15 0 0,0
25.02.2020 06:00:00 10,1 7,0 9,7 11,6 12,0 9 5 20 11 SSW 1020,8 10 0 0,0
25.02.2020 05:00:00 10,2 7,3 9,9 11,6 11,9 10 5 19 10 SW 1021,1 7 0 0,0
25.02.2020 04:00:00 10,8 7,8 10,7 11,6 11,9 10 5 22 12 SW 1021,2 7 0 0,0
25.02.2020 03:00:00 11,1 8,3 10,7 11,7 11,9 14 7 30 16 W 1021,6 8 0 0,0
25.02.2020 02:00:00 11,0 7,3 10,6 11,7 11,9 13 7 28 15 W 1022,2 10 0 0,0
25.02.2020 01:00:00 10,8 7,5 10,6 11,8 11,9 5 3 24 13 SW 1022,6 7 0 0,0
25.02.2020 00:00:00 10,8 7,3 10,5 11,9 11,9 10 5 24 13 WSW 1023,3 8 0 0,0
24.02.2020 23:00:00 10,7 6,8 10,4 11,9 11,9 15 8 27 14 W 1024,0 9 0 0,0
24.02.2020 22:00:00 10,6 7,7 10,4 12,0 11,9 19 10 28 15 WNW 1025,0 8 0 0,0
24.02.2020 21:00:00 10,4 8,2 10,2 12,0 11,9 16 8 28 15 W 1024,7 8 0 0,0
24.02.2020 20:00:00 10,0 8,6 10,1 12,1 11,9 18 10 26 14 W 1024,7 4,9 0 0,0
24.02.2020 19:00:00 10,0 8,6 9,6 12,1 11,9 11 6 24 13 W 1024,2 6 25 0,0
24.02.2020 18:00:00 10,1 8,4 9,6 12,1 11,9 14 8 24 13 WNW 1023,8 7 10 0,0
24.02.2020 17:00:00 9,9 8,0 11,0 12,0 11,9 17 9 31 17 W 1024,2 8 15 0,0
24.02.2020 16:00:00 10,2 7,8 11,7 11,9 11,9 22 12 32 17 W 1025,1 8 43 0,0
24.02.2020 15:00:00 12,9 6,7 16,9 11,6 11,9 18 10 26 14 WNW 1025,1 4,5 60 0,0
24.02.2020 14:00:00 14,5 7,1 18,4 11,4 11,9 4 2 14 8 W 1025,2 10 60 0,0
24.02.2020 13:00:00 11,8 6,1 16,5 11,3 11,9 6 4 16 9 NE 1025,9 15 60 0,0
24.02.2020 12:00:00 10,0 7,2 10,5 11,2 11,9 9 5 16 9 ENE 1026,6 11 51 0,0
24.02.2020 11:00:00 6,8 6,7 7,7 11,2 11,9 6 3 17 9 ENE 1027,5 6 0 0,0
24.02.2020 10:00:00 6,1 6,0 6,9 11,3 11,9 8 4 15 8 E 1028,3 0,4 0 0,0
24.02.2020 09:00:00 6,3 6,3 6,4 11,4 11,9 9 5 18 10 E 1028,4 0,3 0 0,0
24.02.2020 08:00:00 6,2 6,2 6,6 11,4 11,9 11 6 19 11 ESE 1028,4 0,2 0 0,0
24.02.2020 07:00:00 6,8 6,7 7,0 11,5 11,9 7 4 16 9 ESE 1029,2 0,2 0 0,0
24.02.2020 06:00:00 7,2 7,1 7,3 11,5 11,9 6 3 17 9 SE 1029,7 0,1 0 0,0
24.02.2020 05:00:00 7,6 7,5 7,8 11,6 11,9 9 5 16 9 E 1029,7 0,4 0 0,0
24.02.2020 04:00:00 7,8 7,4 7,9 11,6 11,9 5 3 17 9 ESE 1030,4 1,4 0 0,0
24.02.2020 03:00:00 8,3 7,9 8,5 11,6 11,9 8 4 13 7 ENE 1031,1 2,3 0 0,0
24.02.2020 02:00:00 8,6 7,8 8,8 11,7 11,9 4 2 10 6 SE 1031,8 2,8 0 0,0
24.02.2020 01:00:00 9,0 7,9 9,1 11,7 11,9 2 1 8 5 ENE 1032,6 4,1 0 0,0
24.02.2020 00:00:00 9,5 8,3 9,4 11,8 11,9 4 2 9 5 SSE 1033,2 6 0 0,0
23.02.2020 23:00:00 9,7 8,3 9,1 11,9 11,9 3 2 10 5 W 1033,8 7 0 0,0
23.02.2020 22:00:00 9,9 8,3 9,1 12,0 11,9 2 1 11 6 WNW 1034,1 8 0 0,0
23.02.2020 21:00:00 9,9 8,3 8,2 12,0 11,9 6 4 11 6 W 1034,1 8 0 0,0
23.02.2020 20:00:00 10,4 8,7 9,3 12,1 11,9 7 4 16 9 WNW 1034,1 11 0 0,0
23.02.2020 19:00:00 10,5 8,8 9,6 12,1 11,9 8 4 19 11 NW 1033,8 9 13 0,0
23.02.2020 18:00:00 11,6 9,2 12,4 12,0 11,9 10 5 21 11 NNW 1033,4 10 60 0,0
23.02.2020 17:00:00 12,3 8,9 16,1 11,9 11,9 14 8 22 12 N 1033,3 5 60 0,0
23.02.2020 16:00:00 13,5 8,5 18,0 11,6 11,9 16 8 21 11 NNW 1033,0 11 60 0,0
23.02.2020 15:00:00 14,6 7,6 19,0 11,4 11,9 6 4 17 9 NW 1033,0 11 60 0,0
23.02.2020 14:00:00 12,7 7,4 18,8 11,2 11,9 8 5 22 12 NNW 1033,9 9 60 0,0
23.02.2020 13:00:00 12,5 7,2 17,6 11,0 11,8 8 4 16 9 NW 1034,5 10 60 0,0
23.02.2020 12:00:00 10,7 7,6 11,4 11,0 11,9 6 4 15 8 N 1034,8 10 57 0,0
23.02.2020 11:00:00 7,9 7,6 9,0 10,9 11,9 6 4 14 8 SE 1034,7 2,3 3 0,0
23.02.2020 10:00:00 7,2 7,1 7,2 11,0 11,9 7 4 13 7 NE 1034,7 1,4 0 0,0
23.02.2020 09:00:00 6,6 6,5 6,9 11,0 11,9 9 5 15 8 E 1034,5 0,1 0 0,0
23.02.2020 08:00:00 7,0 6,7 6,7 11,1 11,9 10 5 19 11 SE 1034,0 0,4 0 0,0
23.02.2020 07:00:00 7,3 7,0 4,6 11,2 11,9 8 4 14 8 SSE 1033,8 2,8 0 0,0
23.02.2020 06:00:00 6,9 6,2 3,9 11,3 11,9 7 4 10 5 SE 1033,6 4,3 0 0,0
23.02.2020 05:00:00 8,7 7,5 6,4 11,3 11,9 5 3 9 5 SE 1033,2 5 0 0,0
23.02.2020 04:00:00 10,1 8,2 9,5 11,3 11,9 3 2 11 6 ENE 1033,6 8 0 0,0
23.02.2020 03:00:00 10,7 8,8 10,5 11,3 11,9 4 2 11 6 S 1034,0 8 0 0,0
23.02.2020 02:00:00 11,1 8,8 10,7 11,3 11,8 2 1 13 7 S 1034,8 9 0 0,0
23.02.2020 01:00:00 11,4 9,3 11,1 11,4 11,9 5 3 17 9 SSW 1035,2 10 0 0,0
23.02.2020 00:00:00 11,3 9,4 11,1 11,4 11,9 5 3 13 7 WSW 1035,7 9 0 0,0
22.02.2020 23:00:00 11,3 9,7 11,2 11,5 11,9 6 4 19 10 W 1036,3 9 0 0,0
22.02.2020 22:00:00 11,4 10,1 9,0 11,5 11,9 11 6 16 9 WNW 1036,2 8 0 0,0
22.02.2020 21:00:00 11,6 10,7 7,8 11,5 11,9 10 5 19 11 WNW 1035,6 9 0 0,0
22.02.2020 20:00:00 10,4 9,5 7,9 11,5 11,9 7 4 17 9 SW 1034,8 6 0 0,0
22.02.2020 19:00:00 11,0 9,7 8,9 11,5 11,9 6 3 13 7 WSW 1034,3 8 10 0,0

tt = Température de l'air
td = dewpoint
tt 5cm = Température de l'air 5cm
tt -20cm = Température de l'air -20cm
tt -100cm = Température de l'air -100cm
ff = Vitesse du vent
fx = gusts
dd = Direction du vent
ppp = reduced air pressure
vv = visibility
sd = Ensoleillement
rr = Quantités de précipitations

stations d'obs. à proximité